﻿測定場所 (Monitoring sites),日付 (Measurement date),時間 (Measurement time),線量率 最大値 (max) μGy/h,線量率 最小値 (min) μGy/h,線量率 平均値 (average) μGy/h,
江戸川 (Edogawa),2014-03-23,23:01～24:00,0.0818,0.0705,0.0747,
江戸川 (Edogawa),2014-03-23,22:01～23:00,0.0805,0.0722,0.0754,
江戸川 (Edogawa),2014-03-23,21:01～22:00,0.0821,0.0723,0.0755,
江戸川 (Edogawa),2014-03-23,20:01～21:00,0.0786,0.0695,0.0747,
江戸川 (Edogawa),2014-03-23,19:01～20:00,0.0813,0.0724,0.0755,
江戸川 (Edogawa),2014-03-23,18:01～19:00,0.0806,0.0717,0.0752,
江戸川 (Edogawa),2014-03-23,17:01～18:00,0.0828,0.0704,0.0749,
江戸川 (Edogawa),2014-03-23,16:01～17:00,0.0830,0.0723,0.0760,
江戸川 (Edogawa),2014-03-23,15:01～16:00,0.0811,0.0719,0.0754,
江戸川 (Edogawa),2014-03-23,14:01～15:00,0.0814,0.0712,0.0758,
江戸川 (Edogawa),2014-03-23,13:01～14:00,0.0852,0.0715,0.0759,
江戸川 (Edogawa),2014-03-23,12:01～13:00,0.0849,0.0719,0.0750,
江戸川 (Edogawa),2014-03-23,11:01～12:00,0.0804,0.0722,0.0753,
江戸川 (Edogawa),2014-03-23,10:01～11:00,0.0798,0.0712,0.0747,
江戸川 (Edogawa),2014-03-23,09:01～10:00,0.0835,0.0714,0.0755,
江戸川 (Edogawa),2014-03-23,08:01～09:00,0.0814,0.0714,0.0752,
江戸川 (Edogawa),2014-03-23,07:01～08:00,0.0784,0.0702,0.0743,
江戸川 (Edogawa),2014-03-23,06:01～07:00,0.0792,0.0703,0.0740,
江戸川 (Edogawa),2014-03-23,05:01～06:00,0.0791,0.0714,0.0741,
江戸川 (Edogawa),2014-03-23,04:01～05:00,0.0794,0.0697,0.0739,
江戸川 (Edogawa),2014-03-23,03:01～04:00,0.0782,0.0706,0.0741,
江戸川 (Edogawa),2014-03-23,02:01～03:00,0.0806,0.0710,0.0748,
江戸川 (Edogawa),2014-03-23,01:01～02:00,0.0797,0.0694,0.0746,
江戸川 (Edogawa),2014-03-23,00:01～01:00,0.0804,0.0693,0.0747,
江戸川 (Edogawa),2014-03-22,23:01～24:00,0.0835,0.0712,0.0747,
江戸川 (Edogawa),2014-03-22,22:01～23:00,0.0789,0.0721,0.0743,
江戸川 (Edogawa),2014-03-22,21:01～22:00,0.0788,0.0716,0.0747,
江戸川 (Edogawa),2014-03-22,20:01～21:00,0.0805,0.0714,0.0747,
江戸川 (Edogawa),2014-03-22,19:01～20:00,0.0805,0.0714,0.0744,
江戸川 (Edogawa),2014-03-22,18:01～19:00,0.0783,0.0716,0.0746,
江戸川 (Edogawa),2014-03-22,17:01～18:00,0.0786,0.0700,0.0741,
江戸川 (Edogawa),2014-03-22,16:01～17:00,0.0805,0.0712,0.0746,
江戸川 (Edogawa),2014-03-22,15:01～16:00,0.0798,0.0704,0.0749,
江戸川 (Edogawa),2014-03-22,14:01～15:00,0.0816,0.0707,0.0759,
江戸川 (Edogawa),2014-03-22,13:01～14:00,0.0811,0.0725,0.0754,
江戸川 (Edogawa),2014-03-22,12:01～13:00,0.0810,0.0721,0.0749,
江戸川 (Edogawa),2014-03-22,11:01～12:00,0.0802,0.0712,0.0746,
江戸川 (Edogawa),2014-03-22,10:01～11:00,0.0799,0.0714,0.0743,
江戸川 (Edogawa),2014-03-22,09:01～10:00,0.0794,0.0713,0.0742,
江戸川 (Edogawa),2014-03-22,08:01～09:00,0.0799,0.0695,0.0742,
江戸川 (Edogawa),2014-03-22,07:01～08:00,0.0793,0.0709,0.0737,
江戸川 (Edogawa),2014-03-22,06:01～07:00,0.0763,0.0698,0.0735,
江戸川 (Edogawa),2014-03-22,05:01～06:00,0.0793,0.0693,0.0737,
江戸川 (Edogawa),2014-03-22,04:01～05:00,0.0806,0.0692,0.0740,
江戸川 (Edogawa),2014-03-22,03:01～04:00,0.0799,0.0709,0.0739,
江戸川 (Edogawa),2014-03-22,02:01～03:00,0.0769,0.0680,0.0734,
江戸川 (Edogawa),2014-03-22,01:01～02:00,0.0784,0.0700,0.0737,
江戸川 (Edogawa),2014-03-22,00:01～01:00,0.0784,0.0708,0.0740,
江戸川 (Edogawa),2014-03-21,23:01～24:00,0.0817,0.0692,0.0740,
江戸川 (Edogawa),2014-03-21,22:01～23:00,0.0783,0.0690,0.0736,
江戸川 (Edogawa),2014-03-21,21:01～22:00,0.0785,0.0708,0.0737,
江戸川 (Edogawa),2014-03-21,20:01～21:00,0.0775,0.0708,0.0736,
江戸川 (Edogawa),2014-03-21,19:01～20:00,0.0784,0.0696,0.0739,
江戸川 (Edogawa),2014-03-21,18:01～19:00,0.0777,0.0699,0.0742,
江戸川 (Edogawa),2014-03-21,17:01～18:00,0.0804,0.0710,0.0735,
江戸川 (Edogawa),2014-03-21,16:01～17:00,0.0822,0.0712,0.0742,
江戸川 (Edogawa),2014-03-21,15:01～16:00,0.0824,0.0704,0.0746,
江戸川 (Edogawa),2014-03-21,14:01～15:00,0.0792,0.0717,0.0744,
江戸川 (Edogawa),2014-03-21,13:01～14:00,0.0836,0.0709,0.0754,
江戸川 (Edogawa),2014-03-21,12:01～13:00,0.0807,0.0712,0.0749,
江戸川 (Edogawa),2014-03-21,11:01～12:00,0.0778,0.0716,0.0742,
江戸川 (Edogawa),2014-03-21,10:01～11:00,0.0799,0.0708,0.0742,
江戸川 (Edogawa),2014-03-21,09:01～10:00,0.0799,0.0700,0.0740,
江戸川 (Edogawa),2014-03-21,08:01～09:00,0.0786,0.0710,0.0742,
江戸川 (Edogawa),2014-03-21,07:01～08:00,0.0803,0.0715,0.0739,
江戸川 (Edogawa),2014-03-21,06:01～07:00,0.0821,0.0708,0.0735,
江戸川 (Edogawa),2014-03-21,05:01～06:00,0.0784,0.0707,0.0736,
江戸川 (Edogawa),2014-03-21,04:01～05:00,0.0772,0.0684,0.0735,
江戸川 (Edogawa),2014-03-21,03:01～04:00,0.0777,0.0700,0.0737,
江戸川 (Edogawa),2014-03-21,02:01～03:00,0.0766,0.0684,0.0733,
江戸川 (Edogawa),2014-03-21,01:01～02:00,0.0828,0.0701,0.0734,
江戸川 (Edogawa),2014-03-21,00:01～01:00,0.0769,0.0690,0.0728,
江戸川 (Edogawa),2014-03-20,23:01～24:00,0.0781,0.0700,0.0731,
江戸川 (Edogawa),2014-03-20,22:01～23:00,0.0757,0.0681,0.0725,
江戸川 (Edogawa),2014-03-20,21:01～22:00,0.0766,0.0684,0.0724,
江戸川 (Edogawa),2014-03-20,20:01～21:00,0.0794,0.0698,0.0737,
江戸川 (Edogawa),2014-03-20,19:01～20:00,0.0818,0.0718,0.0755,
江戸川 (Edogawa),2014-03-20,18:01～19:00,0.0827,0.0725,0.0763,
江戸川 (Edogawa),2014-03-20,17:01～18:00,0.0852,0.0725,0.0766,
江戸川 (Edogawa),2014-03-20,16:01～17:00,0.0863,0.0742,0.0807,
江戸川 (Edogawa),2014-03-20,15:01～16:00,0.0937,0.0790,0.0874,
江戸川 (Edogawa),2014-03-20,14:01～15:00,0.0940,0.0827,0.0883,
江戸川 (Edogawa),2014-03-20,13:01～14:00,0.0932,0.0811,0.0873,
江戸川 (Edogawa),2014-03-20,12:01～13:00,0.0951,0.0815,0.0876,
江戸川 (Edogawa),2014-03-20,11:01～12:00,0.0976,0.0850,0.0922,
江戸川 (Edogawa),2014-03-20,10:01～11:00,0.0982,0.0857,0.0913,
江戸川 (Edogawa),2014-03-20,09:01～10:00,0.0956,0.0825,0.0876,
江戸川 (Edogawa),2014-03-20,08:01～09:00,0.0910,0.0755,0.0836,
江戸川 (Edogawa),2014-03-20,07:01～08:00,0.0844,0.0734,0.0784,
江戸川 (Edogawa),2014-03-20,06:01～07:00,0.0830,0.0731,0.0774,
江戸川 (Edogawa),2014-03-20,05:01～06:00,0.0816,0.0723,0.0760,
江戸川 (Edogawa),2014-03-20,04:01～05:00,0.0826,0.0726,0.0768,
江戸川 (Edogawa),2014-03-20,03:01～04:00,0.0859,0.0738,0.0782,
江戸川 (Edogawa),2014-03-20,02:01～03:00,0.0825,0.0719,0.0758,
江戸川 (Edogawa),2014-03-20,01:01～02:00,0.0805,0.0720,0.0753,
江戸川 (Edogawa),2014-03-20,00:01～01:00,0.0803,0.0718,0.0758,
江戸川 (Edogawa),2014-03-19,23:01～24:00,0.0824,0.0719,0.0751,
江戸川 (Edogawa),2014-03-19,22:01～23:00,0.0806,0.0714,0.0749,
江戸川 (Edogawa),2014-03-19,21:01～22:00,0.0817,0.0714,0.0752,
江戸川 (Edogawa),2014-03-19,20:01～21:00,0.0821,0.0714,0.0751,
江戸川 (Edogawa),2014-03-19,19:01～20:00,0.0817,0.0688,0.0748,
江戸川 (Edogawa),2014-03-19,18:01～19:00,0.0829,0.0712,0.0754,
江戸川 (Edogawa),2014-03-19,17:01～18:00,0.0815,0.0719,0.0757,
江戸川 (Edogawa),2014-03-19,16:01～17:00,0.0820,0.0711,0.0757,
江戸川 (Edogawa),2014-03-19,15:01～16:00,0.0816,0.0706,0.0767,
江戸川 (Edogawa),2014-03-19,14:01～15:00,0.0823,0.0722,0.0769,
江戸川 (Edogawa),2014-03-19,13:01～14:00,0.0833,0.0730,0.0766,
江戸川 (Edogawa),2014-03-19,12:01～13:00,0.0809,0.0714,0.0766,
江戸川 (Edogawa),2014-03-19,11:01～12:00,0.0819,0.0728,0.0765,
江戸川 (Edogawa),2014-03-19,10:01～11:00,0.0820,0.0721,0.0773,
江戸川 (Edogawa),2014-03-19,09:01～10:00,0.0831,0.0724,0.0771,
江戸川 (Edogawa),2014-03-19,08:01～09:00,0.0836,0.0722,0.0766,
江戸川 (Edogawa),2014-03-19,07:01～08:00,0.0837,0.0712,0.0752,
江戸川 (Edogawa),2014-03-19,06:01～07:00,0.0795,0.0723,0.0751,
江戸川 (Edogawa),2014-03-19,05:01～06:00,0.0813,0.0710,0.0751,
江戸川 (Edogawa),2014-03-19,04:01～05:00,0.0785,0.0719,0.0752,
江戸川 (Edogawa),2014-03-19,03:01～04:00,0.0806,0.0719,0.0755,
江戸川 (Edogawa),2014-03-19,02:01～03:00,0.0808,0.0715,0.0762,
江戸川 (Edogawa),2014-03-19,01:01～02:00,0.0821,0.0719,0.0768,
江戸川 (Edogawa),2014-03-19,00:01～01:00,0.0825,0.0719,0.0766,
江戸川 (Edogawa),2014-03-18,23:01～24:00,0.0818,0.0719,0.0761,
江戸川 (Edogawa),2014-03-18,22:01～23:00,0.0816,0.0723,0.0762,
江戸川 (Edogawa),2014-03-18,21:01～22:00,0.0837,0.0711,0.0760,
江戸川 (Edogawa),2014-03-18,20:01～21:00,0.0817,0.0712,0.0757,
江戸川 (Edogawa),2014-03-18,19:01～20:00,0.0800,0.0716,0.0749,
江戸川 (Edogawa),2014-03-18,18:01～19:00,0.0798,0.0709,0.0750,
江戸川 (Edogawa),2014-03-18,17:01～18:00,0.0812,0.0717,0.0755,
江戸川 (Edogawa),2014-03-18,16:01～17:00,0.0804,0.0715,0.0754,
江戸川 (Edogawa),2014-03-18,15:01～16:00,0.0825,0.0716,0.0758,
江戸川 (Edogawa),2014-03-18,14:01～15:00,0.0810,0.0725,0.0758,
江戸川 (Edogawa),2014-03-18,13:01～14:00,0.0808,0.0714,0.0760,
江戸川 (Edogawa),2014-03-18,12:01～13:00,0.0806,0.0719,0.0751,
江戸川 (Edogawa),2014-03-18,11:01～12:00,0.0808,0.0723,0.0756,
江戸川 (Edogawa),2014-03-18,10:01～11:00,0.0826,0.0719,0.0759,
江戸川 (Edogawa),2014-03-18,09:01～10:00,0.0816,0.0719,0.0753,
江戸川 (Edogawa),2014-03-18,08:01～09:00,0.0848,0.0708,0.0761,
江戸川 (Edogawa),2014-03-18,07:01～08:00,0.0810,0.0715,0.0753,
江戸川 (Edogawa),2014-03-18,06:01～07:00,0.0841,0.0712,0.0755,
江戸川 (Edogawa),2014-03-18,05:01～06:00,0.0810,0.0721,0.0750,
江戸川 (Edogawa),2014-03-18,04:01～05:00,0.0803,0.0720,0.0754,
江戸川 (Edogawa),2014-03-18,03:01～04:00,0.0820,0.0706,0.0753,
江戸川 (Edogawa),2014-03-18,02:01～03:00,0.0819,0.0711,0.0755,
江戸川 (Edogawa),2014-03-18,01:01～02:00,0.0801,0.0707,0.0748,
江戸川 (Edogawa),2014-03-18,00:01～01:00,0.0796,0.0710,0.0751,
江戸川 (Edogawa),2014-03-17,23:01～24:00,0.0800,0.0711,0.0757,
江戸川 (Edogawa),2014-03-17,22:01～23:00,0.0805,0.0714,0.0753,
江戸川 (Edogawa),2014-03-17,21:01～22:00,0.0812,0.0709,0.0752,
江戸川 (Edogawa),2014-03-17,20:01～21:00,0.0798,0.0709,0.0753,
江戸川 (Edogawa),2014-03-17,19:01～20:00,0.0810,0.0718,0.0756,
江戸川 (Edogawa),2014-03-17,18:01～19:00,0.0791,0.0716,0.0749,
江戸川 (Edogawa),2014-03-17,17:01～18:00,0.0799,0.0715,0.0754,
江戸川 (Edogawa),2014-03-17,16:01～17:00,0.0821,0.0724,0.0765,
江戸川 (Edogawa),2014-03-17,15:01～16:00,0.0825,0.0717,0.0769,
江戸川 (Edogawa),2014-03-17,14:01～15:00,0.0826,0.0726,0.0762,
江戸川 (Edogawa),2014-03-17,13:01～14:00,0.0827,0.0725,0.0763,
江戸川 (Edogawa),2014-03-17,12:01～13:00,0.0830,0.0733,0.0766,
江戸川 (Edogawa),2014-03-17,11:01～12:00,0.0833,0.0722,0.0765,
江戸川 (Edogawa),2014-03-17,10:01～11:00,0.0817,0.0724,0.0767,
江戸川 (Edogawa),2014-03-17,09:01～10:00,0.0813,0.0718,0.0756,
江戸川 (Edogawa),2014-03-17,08:01～09:00,0.0811,0.0717,0.0754,
江戸川 (Edogawa),2014-03-17,07:01～08:00,0.0793,0.0715,0.0750,
江戸川 (Edogawa),2014-03-17,06:01～07:00,0.0792,0.0718,0.0746,
江戸川 (Edogawa),2014-03-17,05:01～06:00,0.0798,0.0704,0.0744,
江戸川 (Edogawa),2014-03-17,04:01～05:00,0.0786,0.0710,0.0744,
江戸川 (Edogawa),2014-03-17,03:01～04:00,0.0846,0.0716,0.0746,
江戸川 (Edogawa),2014-03-17,02:01～03:00,0.0813,0.0717,0.0750,
江戸川 (Edogawa),2014-03-17,01:01～02:00,0.0804,0.0718,0.0749,
江戸川 (Edogawa),2014-03-17,00:01～01:00,0.0797,0.0718,0.0747,
